Tracking 25949 objects as of 8-Aug-2022
HD Live streaming from Space Station
objects crossing your sky now

COSMOS 1275 DEB

Track COSMOS 1275 DEB now!
10-day predictions


NORAD ID: 12663
Int'l Code: 1981-053T
Perigee: 917.1 km
Apogee: 990.4 km
Inclination: 83.0 °
Period: 104.0 minutes
Semi major axis: 7324 km
RCS: 0.0867 m2 (small)
Launch date: June 4, 1981
Source: Commonwealth of Independent States (former USSR) (CIS)
Launch site: PLESETSK MISSILE AND SPACE COMPLEX (PKMTR)

Note: This is SATELLITE DEBRIS
aabbcc
Your satellite tracking list
Your tracking list is empty




NASA's NSSDC Master Catalog

Two Line Element Set (TLE):
1 12663U 81053T   22220.53956314  .00000471  00000-0  39980-3 0  9993
2 12663  82.9551 142.8635 0050063 209.5611 272.1592 13.84893134 64021
Source of the keplerian elements: AFSPC